Content
SEND FEEDBACK

Daily
Averages
Monthly
Summary
United States of America

INARAJAN, GUAM


Home > North America > United States > Guam
Elevation: 85 meters     Latitude: 13 18N     Longitude: 144 44E

WEATHER
 
SELECT A DAY
Number of Records: 342,038;   Date Range: 1/1/95 - 7/29/14
 
SHARE

PRINT THIS DATA

[ ← Previous Day ]
WEATHER ALMANAC - 10 MAY, 2013
[ Next Day → ]
[ °F ]   °C
Weather ElementAverageHighLow
Temperature27.6 °C29 °C (10:24 am)25 °C (12:07 am)
Dewpoint24.1 °C25 °C (12:07 am)23.6 °C (4:55 am)
Humidity81.5 %100 % (12:07 am)74 % (10:25 am)
Barometer1008.8 hPa1010.8 hPa (12:07 am)1007.1 hPa (4:08 pm)
Wind Speed14.3 km/h18.5 km/h (12:55 am)
Weather ElementAverage
Visibility16.1 km
Wind DirectionENE (63.7 °)

Weather ElementTotal
Precipitation---
Cooling Degree Days8.7 (Base 18.3)
Growing Degree Days17 (Base 10)
Averaged from 75 records on 10 May, 2013
WEATHER CONDITIONS BREAKOUT
WIND DIRECTION BREAKOUT
WEATHER BY HOUR - 10 MAY, 2013
[ °F ]   °C
Local TimeTemperatureDewpointHumidityBarometerVisibilityWind DirectionWind SpeedGust SpeedPrecipitationEventsConditions
12:07 AM25 °C25 °C100 %1010.8 hPa16.1 kmNE (40°)9.3 km/hOvercast
12:55 AM26 °C24.9 °C94 %1009.8 hPa16.1 kmNE (50°)18.5 km/h0 mmMostly Cloudy
1:55 AM25.6 °C24.2 °C92 %1009.5 hPa16.1 kmNE (40°)11.1 km/hClear
2:55 AM25.8 °C23.9 °C89 %1008.8 hPa16.1 kmNE (40°)16.7 km/hPartly Cloudy
3:55 AM25.7 °C23.8 °C89 %1008.8 hPa16.1 kmNE (50°)14.8 km/hClear
4:55 AM25.5 °C23.6 °C89 %1008.8 hPa16.1 kmENE (60°)14.8 km/hClear
5:55 AM25.5 °C23.8 °C90 %1009.5 hPa16.1 kmENE (60°)13 km/hClear
6:55 AM26.1 °C24.2 °C89 %1009.5 hPa16.1 kmEast (80°)13 km/hPartly Cloudy
7:55 AM26.8 °C24.2 °C86 %1010.2 hPa16.1 kmEast (80°)14.8 km/hPartly Cloudy
8:30 AM27 °C24 °C84 %1010.2 hPa16.1 kmEast (80°)13 km/hMostly Cloudy
8:35 AM27 °C24 °C84 %1010.2 hPa16.1 kmEast (90°)13 km/hScattered Clouds
8:55 AM27.5 °C24.6 °C84 %1010.2 hPa16.1 kmENE (70°)13 km/hScattered Clouds
9:55 AM27.9 °C24.6 °C82 %1010.2 hPa16.1 kmEast (90°)16.7 km/hMostly Cloudy
10:21 AM28 °C24 °C79 %1009.8 hPa16.1 kmENE (70°)14.8 km/hMostly Cloudy
10:24 AM29 °C25 °C79 %1009.8 hPa16.1 kmENE (70°)14.8 km/hScattered Clouds
10:25 AM29 °C24 °C74 %1009.8 hPa16.1 kmENE (60°)14.8 km/hMostly Cloudy
10:29 AM29 °C24 °C74 %1009.8 hPa16.1 kmENE (60°)14.8 km/hMostly Cloudy
10:32 AM29 °C24 °C74 %1009.8 hPa16.1 kmENE (60°)14.8 km/hMostly Cloudy
10:34 AM28 °C24 °C79 %1009.8 hPa16.1 kmENE (60°)14.8 km/hMostly Cloudy
10:37 AM28 °C24 °C79 %1009.8 hPa16.1 kmENE (60°)13 km/hMostly Cloudy
10:38 AM28 °C24 °C79 %1009.8 hPa16.1 kmENE (70°)14.8 km/hMostly Cloudy
10:39 AM28 °C24 °C79 %1009.8 hPa16.1 kmENE (70°)16.7 km/hMostly Cloudy
10:50 AM29 °C24 °C74 %1009.8 hPa16.1 kmENE (60°)14.8 km/hMostly Cloudy
10:55 AM28.6 °C24.2 °C77 %1009.8 hPa16.1 kmNE (50°)16.7 km/hScattered Clouds
10:58 AM29 °C24 °C74 %1009.8 hPa16.1 kmENE (60°)14.8 km/hMostly Cloudy
11:01 AM29 °C25 °C79 %1009.8 hPa16.1 kmENE (60°)14.8 km/hMostly Cloudy
11:29 AM29 °C25 °C79 %1009.5 hPa16.1 kmNNE (30°)18.5 km/hMostly Cloudy
11:33 AM29 °C25 °C79 %1009.5 hPa16.1 kmNE (40°)18.5 km/hMostly Cloudy
11:48 AM29 °C24 °C74 %1009.5 hPa16.1 kmNNE (30°)18.5 km/hMostly Cloudy
11:55 AM28.9 °C24.1 °C75 %1009.5 hPa16.1 kmNE (40°)18.5 km/hMostly Cloudy
12:55 PM29 °C24.5 °C77 %1008.8 hPa16.1 kmNE (40°)18.5 km/hMostly Cloudy
1:02 PM29 °C24 °C74 %1008.5 hPa16.1 kmNE (40°)18.5 km/hMostly Cloudy
1:14 PM29 °C25 °C79 %1008.5 hPa16.1 kmNE (50°)16.7 km/hMostly Cloudy
1:55 PM28.9 °C24 °C75 %1008.1 hPa16.1 kmENE (70°)14.8 km/hMostly Cloudy
2:55 PM28.6 °C24.2 °C77 %1007.8 hPa16.1 kmENE (60°)14.8 km/hMostly Cloudy
2:56 PM29 °C24 °C74 %1007.8 hPa16.1 kmENE (60°)14.8 km/hScattered Clouds
3:03 PM29 °C24 °C74 %1007.8 hPa16.1 kmENE (60°)14.8 km/hMostly Cloudy
3:05 PM29 °C24 °C74 %1007.8 hPa16.1 kmENE (60°)13 km/hScattered Clouds
3:06 PM29 °C24 °C74 %1007.8 hPa16.1 kmENE (60°)13 km/hMostly Cloudy
3:12 PM29 °C24 °C74 %1007.8 hPa16.1 kmENE (60°)13 km/hScattered Clouds
3:18 PM29 °C24 °C74 %1007.5 hPa16.1 kmENE (70°)14.8 km/hMostly Cloudy
3:22 PM28 °C24 °C79 %1007.5 hPa16.1 kmENE (70°)14.8 km/hScattered Clouds
3:35 PM29 °C24 °C74 %1007.5 hPa16.1 kmENE (60°)14.8 km/hMostly Cloudy
3:49 PM28 °C24 °C79 %1007.5 hPa16.1 kmENE (60°)14.8 km/hScattered Clouds
3:50 PM28 °C24 °C79 %1007.5 hPa16.1 kmENE (70°)14.8 km/hMostly Cloudy
3:55 PM28.3 °C24 °C77 %1007.5 hPa16.1 kmENE (70°)14.8 km/hMostly Cloudy
4:03 PM28 °C24 °C79 %1007.5 hPa16.1 kmEast (80°)14.8 km/hScattered Clouds
4:08 PM28 °C24 °C79 %1007.1 hPa16.1 kmENE (70°)14.8 km/hMostly Cloudy
4:27 PM28 °C24 °C79 %1007.5 hPa16.1 kmNE (50°)14.8 km/hMostly Cloudy
4:29 PM28 °C24 °C79 %1007.5 hPa16.1 kmENE (70°)13 km/hMostly Cloudy
4:31 PM28 °C24 °C79 %1007.5 hPa16.1 kmENE (60°)13 km/hMostly Cloudy
4:55 PM28.1 °C24.4 °C80 %1007.5 hPa16.1 kmENE (70°)14.8 km/hMostly Cloudy
4:57 PM28 °C25 °C84 %1007.5 hPa16.1 kmEast (80°)13 km/hMostly Cloudy
5:37 PM28 °C24 °C79 %1007.5 hPa16.1 kmENE (60°)14.8 km/hScattered Clouds
5:55 PM27.5 °C23.9 °C81 %1007.5 hPa16.1 kmENE (60°)13 km/hPartly Cloudy
6:31 PM27 °C24 °C84 %1008.1 hPa16.1 kmENE (60°)11.1 km/hMostly Cloudy
6:34 PM27 °C24 °C84 %1008.1 hPa16.1 kmENE (60°)11.1 km/hScattered Clouds
6:46 PM27 °C24 °C84 %1008.1 hPa16.1 kmENE (70°)11.1 km/hMostly Cloudy
6:51 PM27 °C24 °C84 %1008.1 hPa16.1 kmENE (70°)13 km/hScattered Clouds
6:55 PM26.6 °C24.1 °C86 %1008.1 hPa16.1 kmEast (80°)13 km/hScattered Clouds
6:57 PM27 °C24 °C84 %1008.1 hPa16.1 kmEast (80°)13 km/hMostly Cloudy
6:59 PM27 °C24 °C84 %1008.1 hPa16.1 kmEast (80°)13 km/hMostly Cloudy
7:02 PM27 °C24 °C84 %1008.1 hPa16.1 kmEast (90°)13 km/hScattered Clouds
7:55 PM26.1 °C23.7 °C87 %1008.8 hPa16.1 kmENE (60°)11.1 km/hClear
8:55 PM25.8 °C23.8 °C89 %1008.8 hPa16.1 kmENE (70°)9.3 km/hClear
9:55 PM26.3 °C24 °C87 %1009.5 hPa16.1 kmEast (80°)11.1 km/hPartly Cloudy
10:03 PM26 °C24 °C89 %1009.1 hPa16.1 kmEast (90°)11.1 km/hMostly Cloudy
10:05 PM26 °C24 °C89 %1009.1 hPa16.1 kmEast (90°)13 km/hMostly Cloudy
10:39 PM27 °C24 °C84 %1009.5 hPa16.1 kmEast (80°)11.1 km/hMostly Cloudy
10:43 PM27 °C24 °C84 %1009.5 hPa16.1 kmEast (80°)13 km/hMostly Cloudy
10:55 PM26.6 °C24.2 °C87 %1009.5 hPa16.1 kmENE (60°)16.7 km/hMostly Cloudy
10:56 PM27 °C24 °C84 %1009.5 hPa16.1 kmENE (60°)18.5 km/hMostly Cloudy
11:06 PM26 °C24 °C89 %1009.5 hPa16.1 kmENE (60°)14.8 km/hMostly Cloudy
11:41 PM26 °C24 °C89 %1009.1 hPa16.1 kmENE (60°)16.7 km/hMostly Cloudy
11:55 PM26.4 °C24.2 °C88 %1009.1 hPa16.1 kmENE (60°)16.7 km/hOvercast
Hourly data recorded from PGUA, located 0 kilometers away from Inarajan, Guam







STORIES FROM OUR PARTNERS